Regional Weather Roundup
Issued by NWS

Home | Current Version | Previous Version | Text Only | Print | Product List | Glossary On
Versions: 1 2 3 4 5 6 7 8 9 10 11 12 13 14 15 16 17 18 19 20 21 22 23 24 25 26 27 28 29 30 31 32 33 34 35 36 37 38 39 40 41 42 43 44 45 46 47 48 49 50
000
ASUS43 KTOP 261408
RWRKS

WEATHER ROUNDUP FOR KANSAS
NATIONAL WEATHER SERVICE GOODLAND KS
900 AM CDT FRI MAY 26 2017

NOTE:  "FAIR" INDICATES FEW OR NO CLOUDS BELOW 12,000 FEET WITH NO
SIGNIFICANT WEATHER AND/OR OBSTRUCTIONS TO VISIBILITY.

KSZ001>006-013>018-027>032-041>047-261500-
NORTHWEST KANSAS

CITY           SKY/WX    TMP DP  RH WIND       PRES   REMARKS
GOODLAND       SUNNY     56  51  84 N16       29.93R
HAYS           SUNNY     65  57  75 N16       29.83R
HILL CITY      SUNNY     61  49  64 N18G24    29.88R
RUSSELL        SUNNY     65  58  78 N18       29.80R
$$

KSZ061>065-074>080-084>089-261500-
SOUTHWEST KANSAS

CITY           SKY/WX    TMP DP  RH WIND       PRES   REMARKS
DODGE CITY     SUNNY     63  52  67 N17       29.85R
ELKHART          N/A     61  43  51 N8          N/A
GARDEN CITY    SUNNY     66  50  56 N23       29.86S
GREAT BEND     SUNNY     66  57  72 NW14G21   29.81R
LIBERAL        SUNNY     65  51  60 N20       29.87F
PRATT          SUNNY     66  55  66 N15       29.79R
$$

KSZ066>073-081>083-090>101-261500-
SOUTHEAST KANSAS

CITY           SKY/WX    TMP DP  RH WIND       PRES   REMARKS
CHANUTE        SUNNY     73  63  70 S8        29.69R
COFFEYVILLE    SUNNY     75  67  76 S9        29.67R
HUTCHINSON     SUNNY     70  61  73 N8        29.74R
MEDICINE LODGE   N/A     70  59  68 N17       29.75R
NEWTON         SUNNY     69  63  81 N10       29.74R
PARSONS        SUNNY     74  63  68 S9        29.69R
WICHITA INTL   MOSUNNY   69  62  78 N15       29.72R
WICHITA JABRA  SUNNY     70  62  76 N14       29.72R
WICHITA MCCONL SUNNY     70  61  72 N16       29.72R
WINFIELD       SUNNY     73  64  73 N8        29.70R
$$

KSZ007>012-019>026-033>040-048>060-102>105-261500-
NORTHEAST KANSAS

CITY           SKY/WX    TMP DP  RH WIND       PRES   REMARKS
CONCORDIA      SUNNY     66  60  81 N13       29.78R
EMPORIA        SUNNY     69  63  81 N6        29.72R
LAWRENCE       MOSUNNY   71  62  73 CALM      29.72R
MANHATTAN      SUNNY     69  64  84 NE5       29.72S
MARYSVILLE     SUNNY     66  64  94 N8        29.74R
OLATHE IND     SUNNY     69  61  75 CALM      29.73R
OLATHE EXE     SUNNY     70  63  78 NW3       29.73R
SALINA         SUNNY     69  61  75 W8        29.76R
TOPEKA BILLARD SUNNY     70  64  81 CALM      29.72R
TOPEKA FORBES  SUNNY     72  64  76 VRB5      29.72R
$$



USA.gov is the U.S. government's official web portal to all federal, state and local government web resources and services.